Вернуться в каталог

SL-8 DEB

АктивенLEO
NORAD 15033·DEBRIS·🇷🇺 Russia

Запущен Jun 8, 1984 с Plesetsk Cosmodrome

Loading…

Ближайшие Пролёты (ближайшие 24 часа)

TLE

СвежийSource: Space-Track

Эпоха: Sep 14, 2026, 10:13 UTC

1 15033U 84056C   26257.42588116  .00000781  00000-0  20620-3 0  9991
2 15033  74.0653 261.3395 0010317  94.5580 336.2376 14.50545348215312

Отслеживайте SL-8 DEB в реальном времени с AllMySat

Download on the App Store